FW8716 Weather Reports


Display with metric or nautical units.
time (UTC)temp
F
wind
direction
speed
MPH
gust
MPH
rain 1hr
in
rain 24hr
in
rain mn
in
humidity
%
barometer
mb
20240713023523 69 161 1.0 5.0 0.00 0.00 0.00 82 1023.6
20240713023021 69 156 0.0 8.0 0.00 0.00 0.00 82 1023.6
20240713022521 69 0 1.0 9.0 0.00 0.00 0.00 82 1023.8
20240713022022 69 0 1.0 9.0 0.00 0.00 0.00 81 1023.7
20240713021529 69 119 0.0 7.0 0.00 0.00 0.00 82 1023.8
20240713021022 69 147 1.0 7.0 0.00 0.00 0.00 81 1023.7
20240713020523 69 149 1.0 4.0 0.00 0.00 0.00 82 1023.6
20240713020025 69 155 1.0 6.0 0.00 0.00 0.00 82 1023.6
20240713015521 69 156 0.0 6.0 0.00 0.00 0.00 83 1023.5
20240713015021 69 0 0.0 6.0 0.00 0.00 0.00 84 1023.5
20240713014525 69 145 0.0 4.0 0.00 0.00 0.00 84 1023.5
20240713014020 69 142 1.0 6.0 0.00 0.00 0.00 84 1023.4
20240713013520 69 0 1.0 6.0 0.00 0.00 0.00 84 1023.5
20240713013025 69 141 1.0 5.0 0.00 0.00 0.00 84 1023.5
20240713012524 69 0 0.0 3.0 0.00 0.00 0.00 83 1023.4
20240713012021 69 138 0.0 4.0 0.00 0.00 0.00 82 1023.4
20240713011523 69 139 1.0 6.0 0.00 0.00 0.00 82 1023.2
20240713011020 69 0 2.0 9.0 0.00 0.00 0.00 81 1023.2
20240713010524 69 157 1.0 9.0 0.00 0.00 0.00 81 1023.1
20240713010027 69 134 1.0 4.0 0.00 0.00 0.00 82 1023.1
20240713005520 69 149 0.0 4.0 0.00 0.00 0.00 84 1023.0
20240713005020 69 175 0.0 5.0 0.00 0.00 0.00 83 1023.0
20240713004536 69 0 0.0 7.0 0.00 0.00 0.00 83 1023.0
20240713004022 69 152 0.0 10.0 0.00 0.00 0.00 82 1023.0
20240713003525 69 175 1.0 10.0 0.00 0.00 0.00 82 1023.0
20240713003028 69 0 1.0 6.0 0.00 0.00 0.00 83 1023.0
20240713002521 69 0 1.0 6.0 0.00 0.00 0.00 82 1023.0
20240713002020 69 139 0.0 5.0 0.00 0.00 0.00 83 1023.0
20240713001525 70 156 0.0 8.0 0.00 0.00 0.00 84 1023.1
20240713001023 70 0 1.0 8.0 0.00 0.00 0.00 82 1023.0
20240713000523 70 144 0.0 6.0 0.00 0.00 0.00 83 1023.0
20240713000032 70 156 1.0 8.0 0.00 0.00 0.00 83 1023.0
20240712235523 70 0 1.0 8.0 0.00 0.00 0.00 83 1023.0
20240712235020 71 134 2.0 9.0 0.00 0.00 0.00 83 1023.0
20240712234530 71 143 1.0 9.0 0.00 0.00 0.00 82 1023.0
20240712234022 71 128 2.0 9.0 0.00 0.00 0.00 82 1022.9
20240712233525 71 87 1.0 4.0 0.00 0.00 0.00 83 1023.0
20240712233022 71 0 1.0 5.0 0.00 0.00 0.00 83 1023.1
20240712232523 71 123 1.0 5.0 0.00 0.00 0.00 83 1023.2
20240712232022 72 133 0.0 4.0 0.00 0.00 0.00 82 1023.1
20240712231532 72 132 1.0 4.0 0.00 0.00 0.00 81 1023.1
20240712231022 73 0 0.0 8.0 0.00 0.00 0.00 80 1022.9
20240712230522 73 0 0.0 8.0 0.00 0.00 0.00 79 1022.9
20240712230025 73 128 1.0 8.0 0.00 0.00 0.00 79 1022.8
20240712225520 73 0 0.0 3.0 0.00 0.00 0.00 79 1023.0
20240712225022 74 140 0.0 3.0 0.00 0.00 0.00 79 1022.9
20240712224524 73 142 0.0 4.0 0.00 0.00 0.00 78 1023.0
20240712224026 73 0 0.0 4.0 0.00 0.00 0.00 79 1022.9
20240712223525 74 141 0.0 4.0 0.00 0.00 0.00 77 1022.9
20240712223029 74 186 0.0 4.0 0.00 0.00 0.00 76 1022.9
20240712222521 74 163 0.0 3.0 0.00 0.00 0.00 76 1022.9
20240712222024 75 0 0.0 2.0 0.00 0.00 0.00 77 1022.8
20240712221522 74 0 0.0 3.0 0.00 0.00 0.00 76 1022.8
20240712221023 74 0 0.0 4.0 0.00 0.00 0.00 76 1022.8
20240712220522 74 0 0.0 4.0 0.00 0.00 0.00 78 1022.9
20240712220029 74 92 1.0 4.0 0.00 0.00 0.00 78 1022.9
20240712215522 73 0 0.0 6.0 0.00 0.00 0.00 79 1022.9
20240712215022 73 0 1.0 6.0 0.00 0.00 0.00 79 1023.0
20240712214524 73 0 0.0 4.0 0.00 0.00 0.00 80 1022.9
20240712214023 73 0 1.0 4.0 0.00 0.00 0.00 79 1022.9
20240712213521 73 235 0.0 8.0 0.00 0.00 0.00 80 1022.9
20240712213024 73 0 0.0 8.0 0.00 0.00 0.00 79 1022.7
20240712212522 73 197 2.0 8.0 0.00 0.00 0.00 78 1022.6
20240712212025 74 165 0.0 4.0 0.00 0.00 0.00 77 1022.6
20240712211524 74 244 1.0 5.0 0.00 0.00 0.00 76 1022.6
20240712211026 74 0 1.0 8.0 0.00 0.00 0.00 76 1022.7
20240712210523 75 176 0.0 8.0 0.00 0.00 0.00 73 1022.6
20240712210025 76 0 2.0 6.0 0.00 0.00 0.00 73 1022.6
20240712205522 77 172 1.0 6.0 0.00 0.00 0.00 71 1022.7
20240712205023 77 226 1.0 6.0 0.00 0.00 0.00 72 1022.7
20240712204526 76 161 0.0 4.0 0.00 0.00 0.00 76 1022.7
20240712204022 76 159 0.0 4.0 0.00 0.00 0.00 72 1022.8
20240712203523 76 184 0.0 2.0 0.00 0.00 0.00 74 1022.9
20240712203024 76 180 0.0 4.0 0.00 0.00 0.00 74 1022.8
20240712202525 76 118 0.0 4.0 0.00 0.00 0.00 73 1022.8
20240712202022 78 0 0.0 8.0 0.00 0.00 0.00 71 1022.9
20240712201536 76 172 0.0 8.0 0.00 0.00 0.00 74 1022.9
20240712201022 75 142 2.0 8.0 0.00 0.00 0.00 72 1022.8
20240712200523 76 194 1.0 6.0 0.00 0.00 0.00 72 1022.9
20240712200025 76 178 1.0 6.0 0.00 0.00 0.00 73 1022.9
20240712195520 75 157 1.0 6.0 0.00 0.00 0.00 74 1023.0
20240712195020 75 0 1.0 7.0 0.00 0.00 0.00 75 1022.9
20240712194525 74 174 1.0 7.0 0.00 0.00 0.00 75 1022.8
20240712194020 74 89 1.0 9.0 0.00 0.00 0.00 75 1022.8
20240712193522 75 169 2.0 9.0 0.00 0.00 0.00 75 1022.9
20240712193023 75 182 1.0 7.0 0.00 0.00 0.00 73 1022.9
20240712192520 74 114 2.0 12.0 0.00 0.00 0.00 76 1022.9
20240712192019 74 138 2.0 12.0 0.00 0.00 0.00 75 1022.9
20240712191535 74 107 2.0 12.0 0.00 0.00 0.00 74 1023.0
20240712191022 74 164 1.0 9.0 0.00 0.00 0.00 75 1023.1
20240712190523 73 159 2.0 9.0 0.00 0.00 0.00 78 1023.1
20240712190030 73 161 0.0 6.0 0.00 0.00 0.00 76 1023.2
20240712185522 73 0 1.0 10.0 0.00 0.00 0.00 76 1023.3
20240712185021 73 153 1.0 10.0 0.00 0.00 0.00 75 1023.3
20240712184526 73 179 3.0 10.0 0.00 0.00 0.00 76 1023.1
20240712184025 75 136 1.0 6.0 0.00 0.00 0.00 73 1023.0
20240712183523 76 157 1.0 6.0 0.00 0.00 0.00 71 1023.1
20240712183035 77 81 1.0 6.0 0.00 0.00 0.00 72 1023.2
20240712182520 75 226 1.0 4.0 0.00 0.00 0.00 76 1023.3
20240712182023 74 157 1.0 4.0 0.00 0.00 0.00 74 1023.3
20240712181526 74 146 1.0 6.0 0.00 0.00 0.00 77 1023.4
20240712181022 74 156 1.0 8.0 0.00 0.00 0.00 75 1023.2
20240712180523 74 144 2.0 8.0 0.00 0.00 0.00 77 1023.3
20240712180024 73 0 1.0 8.0 0.00 0.00 0.00 75 1023.2
20240712175524 73 159 1.0 8.0 0.00 0.00 0.00 77 1023.2
20240712175022 73 137 3.0 8.0 0.00 0.00 0.00 77 1023.2
20240712174532 73 146 1.0 9.0 0.00 0.00 0.00 75 1023.3
20240712174019 73 146 2.0 9.0 0.00 0.00 0.00 79 1023.2
20240712173520 72 144 3.0 9.0 0.00 0.00 0.00 77 1023.3
20240712173041 73 177 1.0 7.0 0.00 0.00 0.00 77 1023.3
20240712172523 73 0 1.0 8.0 0.00 0.00 0.00 78 1023.4
20240712172022 73 110 1.0 8.0 0.00 0.00 0.00 75 1023.3
20240712171529 75 144 1.0 4.0 0.00 0.00 0.00 75 1023.3
20240712171023 76 175 1.0 4.0 0.00 0.00 0.00 72 1023.3
20240712170523 76 145 1.0 9.0 0.00 0.00 0.00 74 1023.2
20240712170026 76 0 3.0 9.0 0.00 0.00 0.00 73 1023.1
20240712165522 77 119 2.0 7.0 0.00 0.00 0.00 70 1023.0
20240712165024 77 171 1.0 8.0 0.00 0.00 0.00 73 1023.2
20240712164525 76 0 1.0 8.0 0.00 0.00 0.00 75 1023.0
20240712164026 75 153 2.0 10.0 0.00 0.00 0.00 72 1022.9
20240712163521 75 144 1.0 10.0 0.00 0.00 0.00 74 1023.0
20240712163025 74 186 2.0 10.0 0.00 0.00 0.00 74 1023.1
20240712162524 74 171 1.0 9.0 0.00 0.00 0.00 75 1023.1
20240712162023 74 134 2.0 13.0 0.00 0.00 0.00 74 1023.0
20240712161524 75 105 2.0 13.0 0.00 0.00 0.00 73 1023.0
20240712161023 76 139 0.0 8.0 0.00 0.00 0.00 77 1023.0
20240712160522 75 0 0.0 8.0 0.00 0.00 0.00 78 1022.8
20240712160033 73 137 3.0 10.0 0.00 0.00 0.00 76 1022.9
20240712155526 74 259 2.0 10.0 0.00 0.00 0.00 75 1022.9
20240712155027 74 193 1.0 10.0 0.00 0.00 0.00 77 1023.0
20240712154534 74 167 2.0 10.0 0.00 0.00 0.00 75 1023.0
20240712154021 73 0 1.0 7.0 0.00 0.00 0.00 78 1023.0
20240712153524 73 121 1.0 8.0 0.00 0.00 0.00 77 1022.9
20240712153025 73 141 2.0 9.0 0.00 0.00 0.00 78 1022.9
20240712152522 72 121 2.0 9.0 0.00 0.00 0.00 78 1023.0
20240712152022 72 202 1.0 11.0 0.00 0.00 0.00 80 1022.8
20240712151526 72 133 1.0 11.0 0.00 0.00 0.00 78 1022.8
20240712151023 72 213 2.0 9.0 0.00 0.00 0.00 78 1022.7
20240712150522 72 186 1.0 15.0 0.00 0.00 0.00 81 1022.6
20240712150031 71 157 2.0 15.0 0.00 0.00 0.00 80 1022.7
20240712145526 72 43 2.0 11.0 0.00 0.00 0.00 79 1022.8
20240712145022 72 130 3.0 14.0 0.00 0.00 0.00 79 1022.7
20240712144549 73 240 3.0 14.0 0.00 0.00 0.00 77 1022.7
20240712144023 72 241 3.0 8.0 0.00 0.00 0.00 77 1022.8
20240712143522 72 146 2.0 8.0 0.00 0.00 0.00 78 1022.7
20240712143033 72 171 1.0 10.0 0.00 0.00 0.00 80 1022.7
20240712142521 71 125 2.0 10.0 0.00 0.00 0.00 80 1022.7
20240712142023 72 37 2.0 10.0 0.00 0.00 0.00 78 1022.7
20240712141528 72 159 1.0 9.0 0.00 0.00 0.00 81 1022.7
20240712141025 72 186 2.0 9.0 0.00 0.00 0.00 79 1022.7
20240712140522 72 151 1.0 10.0 0.00 0.00 0.00 79 1022.6
20240712140035 72 142 1.0 10.0 0.00 0.00 0.00 81 1022.6
20240712135520 71 70 2.0 10.0 0.00 0.00 0.00 83 1022.7
20240712135019 70 134 2.0 10.0 0.00 0.00 0.00 82 1022.7
20240712134527 70 129 3.0 10.0 0.00 0.00 0.00 82 1022.8
20240712134020 70 131 2.0 10.0 0.00 0.00 0.00 84 1022.7
20240712133521 70 101 2.0 8.0 0.00 0.00 0.00 84 1022.9
20240712133023 69 136 2.0 10.0 0.00 0.00 0.00 86 1022.9
20240712132524 69 150 2.0 12.0 0.00 0.00 0.00 86 1022.8
20240712132021 68 155 2.0 13.0 0.00 0.00 0.00 88 1022.8
20240712131525 68 165 3.0 13.0 0.00 0.00 0.00 87 1022.9
20240712131020 68 171 3.0 13.0 0.00 0.00 0.00 87 1022.8
20240712130519 69 148 1.0 8.0 0.00 0.00 0.00 86 1022.5
20240712130024 69 184 1.0 6.0 0.00 0.00 0.00 87 1022.7
20240712125519 68 140 0.0 6.0 0.00 0.00 0.00 89 1022.6
20240712125019 67 0 1.0 6.0 0.00 0.00 0.00 89 1022.6
20240712124535 67 0 0.0 8.0 0.00 0.00 0.00 89 1022.6
20240712124021 68 147 0.0 8.0 0.00 0.00 0.00 87 1022.5
20240712123517 68 186 1.0 8.0 0.00 0.00 0.00 87 1022.5
20240712123030 68 0 1.0 7.0 0.00 0.00 0.00 88 1022.5
20240712122520 68 0 0.0 4.0 0.00 0.00 0.00 88 1022.5
20240712122019 68 128 0.0 6.0 0.00 0.00 0.00 89 1022.5
20240712121520 68 144 1.0 6.0 0.00 0.00 0.00 88 1022.4
20240712121020 68 152 1.0 5.0 0.00 0.00 0.00 89 1022.3
20240712120517 67 157 0.0 6.0 0.00 0.00 0.00 90 1022.3
20240712120025 67 0 1.0 6.0 0.00 0.00 0.00 90 1022.3
20240712115519 67 0 0.0 5.0 0.00 0.00 0.00 90 1022.3
20240712115020 67 0 0.0 5.0 0.00 0.00 0.00 91 1022.1
20240712114523 66 134 1.0 4.0 0.00 0.00 0.00 91 1022.1
20240712114020 67 141 0.0 5.0 0.00 0.00 0.00 91 1022.1
20240712113521 67 0 0.0 5.0 0.00 0.00 0.00 90 1022.1
20240712113022 67 146 0.0 11.0 0.00 0.00 0.00 90 1022.0
20240712112519 67 0 0.0 11.0 0.00 0.00 0.00 90 1022.0
20240712112019 67 130 1.0 3.0 0.00 0.00 0.00 90 1021.9
20240712111523 67 139 0.0 2.0 0.00 0.00 0.00 90 1021.8
20240712111017 67 0 0.0 3.0 0.00 0.00 0.00 90 1021.7
20240712110518 67 0 0.0 3.0 0.00 0.00 0.00 90 1021.6
20240712110034 67 0 0.0 4.0 0.00 0.00 0.00 90 1021.6
20240712105518 67 0 0.0 4.0 0.00 0.00 0.00 90 1021.5
20240712105021 67 137 0.0 2.0 0.00 0.00 0.00 90 1021.5
20240712104520 67 92 0.0 6.0 0.00 0.00 0.00 90 1021.4
20240712104020 67 0 1.0 6.0 0.00 0.00 0.00 91 1021.3
20240712103520 66 0 0.0 7.0 0.00 0.00 0.00 91 1021.4
20240712103029 66 163 2.0 7.0 0.00 0.00 0.00 91 1021.3
20240712102520 66 0 0.0 5.0 0.00 0.00 0.00 92 1021.3
20240712102020 66 0 1.0 5.0 0.00 0.00 0.00 92 1021.1
20240712101523 66 0 0.0 6.0 0.00 0.00 0.00 92 1021.1
20240712101018 66 55 1.0 6.0 0.00 0.00 0.00 93 1021.0
20240712100520 66 0 1.0 4.0 0.00 0.00 0.00 93 1021.0
20240712100023 66 0 0.0 2.0 0.00 0.00 0.00 93 1021.0
20240712095518 66 0 0.0 3.0 0.00 0.00 0.00 94 1021.0
20240712095021 66 0 0.0 3.0 0.00 0.00 0.00 93 1021.0
20240712094524 66 0 0.0 3.0 0.00 0.00 0.00 94 1021.0
20240712094017 66 331 0.0 3.0 0.00 0.00 0.00 93 1020.8
20240712093522 66 0 0.0 4.0 0.00 0.00 0.00 93 1020.9
20240712093023 66 331 0.0 4.0 0.00 0.00 0.00 93 1020.9
20240712092524 66 331 2.0 4.0 0.00 0.00 0.00 93 1020.7
20240712092020 66 0 0.0 4.0 0.00 0.00 0.00 93 1020.8
20240712091525 66 331 1.0 4.0 0.00 0.00 0.00 93 1020.8
20240712091020 66 0 0.0 2.0 0.00 0.00 0.00 93 1020.6
20240712090521 66 0 0.0 2.0 0.00 0.00 0.00 93 1020.7
20240712090023 66 0 0.0 2.0 0.00 0.00 0.00 93 1020.5
20240712085517 66 0 0.0 2.0 0.00 0.10 0.00 93 1020.4
20240712085017 66 0 0.0 2.0 0.00 0.10 0.00 93 1020.4
20240712084523 66 0 0.0 2.0 0.00 0.10 0.00 93 1020.4
20240712084018 66 0 0.0 2.0 0.00 0.10 0.00 93 1020.3
20240712083524 66 0 0.0 1.0 0.00 0.10 0.00 93 1020.2
20240712083032 66 0 0.0 1.0 0.00 0.10 0.00 93 1020.1
20240712082520 66 0 0.0 3.0 0.00 0.10 0.00 93 1020.1
20240712082017 66 0 1.0 3.0 0.00 0.10 0.00 93 1020.0
20240712081526 66 0 0.0 3.0 0.00 0.10 0.00 93 1020.1
20240712081018 66 0 0.0 3.0 0.00 0.10 0.00 93 1020.1
20240712080518 66 345 1.0 3.0 0.00 0.10 0.00 93 1020.1
20240712080024 66 0 0.0 3.0 0.00 0.10 0.00 93 1020.1
20240712075518 66 0 0.0 3.0 0.00 0.51 0.00 93 1020.0
20240712075020 66 345 0.0 3.0 0.00 0.51 0.00 92 1020.1
20240712074520 66 0 0.0 3.0 0.00 0.51 0.00 92 1020.1
20240712074018 66 0 1.0 3.0 0.00 0.51 0.00 92 1020.1
20240712073517 66 114 0.0 2.0 0.00 0.51 0.00 92 1020.0
20240712073019 66 0 0.0 3.0 0.00 0.51 0.00 92 1020.0
20240712072520 66 0 0.0 3.0 0.00 0.51 0.00 92 1020.0
20240712072019 66 0 0.0 3.0 0.00 0.51 0.00 92 1019.9
20240712071522 66 0 0.0 7.0 0.00 0.51 0.00 92 1020.0
20240712071018 66 107 0.0 7.0 0.00 0.51 0.00 92 1019.8
20240712070521 66 286 0.0 4.0 0.00 0.51 0.00 91 1019.9
20240712070027 66 267 1.0 3.0 0.00 0.51 0.00 91 1019.9
20240712065519 67 144 0.0 2.0 0.00 0.61 0.00 91 1019.9
20240712065017 67 0 0.0 3.0 0.00 0.61 0.00 91 1019.9
20240712064521 67 0 0.0 3.0 0.00 0.61 0.00 91 1020.0
20240712064020 67 0 0.0 1.0 0.00 0.61 0.00 91 1020.0
20240712063522 67 329 0.0 2.0 0.00 0.61 0.00 91 1020.0
20240712063021 67 0 0.0 4.0 0.00 0.61 0.00 91 1019.9
20240712062519 67 0 0.0 4.0 0.00 0.61 0.00 91 1019.8
20240712062018 67 328 2.0 4.0 0.00 0.61 0.00 90 1019.8
20240712061528 67 273 1.0 5.0 0.00 0.61 0.00 90 1019.7
20240712061016 67 238 0.0 6.0 0.00 0.61 0.00 90 1019.7
20240712060519 67 186 0.0 8.0 0.00 0.61 0.00 91 1019.7
20240712060030 67 261 2.0 8.0 0.00 0.61 0.00 91 1019.6
20240712055520 67 246 1.0 8.0 0.00 0.61 0.00 91 1019.6
20240712055020 66 190 1.0 4.0 0.00 0.61 0.00 91 1019.8
20240712054521 66 149 0.0 8.0 0.00 0.61 0.00 91 1019.7
20240712054017 66 171 1.0 8.0 0.00 0.61 0.00 91 1019.7
20240712053518 66 182 1.0 8.0 0.00 0.61 0.00 91 1019.6
20240712053032 66 261 1.0 9.0 0.00 0.61 0.00 91 1019.7
20240712052518 67 0 1.0 9.0 0.00 0.61 0.00 90 1019.8
20240712052020 67 0 1.0 9.0 0.00 0.61 0.00 90 1019.8
20240712051532 67 0 1.0 5.0 0.00 0.61 0.00 90 1019.8
20240712051017 67 0 0.0 3.0 0.00 0.61 0.00 89 1019.8
20240712050517 67 0 0.0 3.0 0.00 0.61 0.00 89 1019.8
20240712050023 67 298 1.0 3.0 0.00 0.61 0.00 89 1019.8
20240712045521 67 0 0.0 4.0 0.00 0.62 0.00 89 1019.8
20240712045020 67 315 0.0 4.0 0.00 0.62 0.00 89 1019.7
20240712044521 67 0 0.0 4.0 0.00 0.62 0.00 89 1019.5
20240712044020 67 265 0.0 7.0 0.00 0.62 0.00 89 1019.4
20240712043518 67 0 1.0 7.0 0.00 0.62 0.00 90 1019.4
20240712043019 66 0 1.0 4.0 0.00 0.62 0.00 90 1019.4
20240712042518 66 280 1.0 4.0 0.00 0.62 0.00 90 1019.3
20240712042018 66 286 0.0 3.0 0.00 0.62 0.00 90 1019.2
20240712041532 66 285 0.0 3.0 0.00 0.62 0.00 90 1019.4
20240712041021 67 284 0.0 3.0 0.00 0.62 0.00 90 1019.2
20240712040517 67 0 0.0 3.0 0.00 0.62 0.00 89 1019.3
20240712040038 67 0 0.0 3.0 0.00 0.62 0.00 89 1019.3
20240712035522 67 238 0.0 3.0 0.00 0.62 0.62 88 1019.2
20240712035024 67 0 0.0 3.0 0.00 0.62 0.62 88 1019.0
20240712034521 67 174 1.0 3.0 0.00 0.62 0.62 88 1019.1
20240712034021 68 202 0.0 2.0 0.00 0.62 0.62 87 1018.9
20240712033519 68 202 0.0 6.0 0.00 0.62 0.62 86 1018.8
20240712033035 68 0 0.0 7.0 0.00 0.62 0.62 86 1018.8
20240712032518 68 0 0.0 7.0 0.00 0.62 0.62 85 1018.6
20240712032020 68 116 2.0 6.0 0.00 0.62 0.62 87 1018.6
20240712031523 67 0 1.0 6.0 0.00 0.62 0.62 87 1018.5
20240712031019 67 173 0.0 5.0 0.00 0.62 0.62 88 1018.8
20240712030518 67 271 1.0 5.0 0.00 0.62 0.62 88 1018.7
20240712030023 67 0 0.0 5.0 0.00 0.62 0.62 88 1018.5
20240712025520 67 0 0.0 4.0 0.00 0.62 0.62 88 1018.5
20240712025019 68 233 0.0 6.0 0.00 0.62 0.62 88 1018.5
20240712024522 68 0 1.0 10.0 0.00 0.62 0.62 87 1018.4
20240712024020 68 309 3.0 10.0 0.00 0.62 0.62 87 1018.4